Pittsburgh Allegheny Co., PA

4:23 PM EST on December 06, 2019 (GMT -0500)
Allegheny County

Weather History for KAGC - November, 2019

Change the Weather History Date:

Tuesday, November 12, 2019

  Actual Average Record
Temperature  
Mean Temperature 26 °F -  
Max Temperature 34 °F 48 °F 71 °F (2012)
Min Temperature 17 °F 32 °F 12 °F (1997)
Degree Days  
Heating Degree Days 39    
Moisture  
Dew Point 23 °F    
Average Humidity 85    
Maximum Humidity 100    
Minimum Humidity 66    
Precipitation  
Precipitation 0.12 in - - ()
Sea Level Pressure  
Sea Level Pressure 30.09 in    
Wind  
Wind Speed 10 mph (NW)    
Max Wind Speed 20 mph    
Max Gust Speed 31 mph    
Visibility 4 miles    
Events Fog , Snow    
Averages and records for this station are not official NWS values.
T = Trace of Precipitation, MM = Missing Value Source: NWS Daily Summary

Daily Weather History Graph

Daily Weather History Graph

Search for Another Location

Airport or City:

Astronomy

Nov. 12, 2019 Rise Set
Actual Time 7:01 AM EST 5:05 PM EST
Civil Twilight 6:32 AM EST 5:34 PM EST
Nautical Twilight 6:00 AM EST 6:06 PM EST
Astronomical Twilight 5:28 AM EST 6:39 PM EST
Moon 5:31 PM EST (11/12) 6:51 AM EST (11/12)
Length of Visible Light 11h 01m
Length of Day
10h 03m
Full, 100% of the Moon is Illuminated
Nov 12
Full
Nov 19
Last Quarter
Nov 26
New
Dec 4
First Quarter
Dec 12
Full

Hourly Weather History & Observations

Time (EST) Temp. Windchill Dew Point Humidity Pressure Visibility Wind Dir Wind Speed Gust Speed Precip Events Conditions
12:53 AM 34.0 °F 28.0 °F 32.0 °F 92% 29.89 in 2.0 mi WNW 6.9 mph - 0.04 in Snow Light Snow
1:05 AM 33.1 °F 28.7 °F 32.0 °F 96% 29.86 in 1.2 mi Variable 4.6 mph - 0.00 in Snow Light Snow
1:53 AM 32.0 °F 24.8 °F 32.0 °F 100% 29.91 in 1.2 mi WNW 8.1 mph - 0.02 in Snow Light Snow
2:31 AM 32.0 °F 26.4 °F 30.9 °F 96% 29.91 in 0.8 mi Variable 5.8 mph 18.4 mph 0.02 in Snow Light Snow
2:45 AM 30.9 °F 22.2 °F 30.0 °F 96% 29.91 in 1.0 mi NW 10.4 mph 23.0 mph 0.02 in Snow Light Snow
3:11 AM 30.0 °F 18.3 °F 28.9 °F 96% 29.92 in 3.0 mi NNW 17.3 mph 25.3 mph 0.00 in Snow Light Snow
3:15 AM 30.0 °F 20.0 °F 28.0 °F 92% 29.92 in 4.0 mi NW 12.7 mph 25.3 mph 0.00 in Snow Light Snow
3:22 AM 30.0 °F 21.1 °F 28.0 °F 92% 29.92 in 6.0 mi NW 10.4 mph 23.0 mph 0.00 in   Overcast
3:29 AM 30.0 °F 20.0 °F 28.0 °F 92% 29.93 in 8.0 mi NNW 12.7 mph 24.2 mph 0.00 in   Overcast
4:00 AM 28.9 °F 18.6 °F 27.0 °F 92% 29.95 in 5.0 mi NW 12.7 mph 20.7 mph N/A   Overcast
4:16 AM 28.9 °F 19.8 °F 27.0 °F 92% 29.95 in 2.5 mi NW 10.4 mph 20.7 mph 0.00 in Snow Light Snow
4:23 AM 28.9 °F 20.4 °F 27.0 °F 92% 29.96 in 4.0 mi NW 9.2 mph 18.4 mph 0.00 in Snow Light Snow
4:53 AM 28.9 °F 17.7 °F 25.0 °F 85% 30.01 in 9.0 mi NNW 15.0 mph 23.0 mph 0.00 in   Overcast
5:00 AM 28.9 °F 19.2 °F 25.0 °F 85% 29.98 in 10.0 mi NNW 11.5 mph 24.2 mph N/A   Overcast
5:18 AM 28.9 °F 18.6 °F 25.0 °F 85% 29.98 in 10.0 mi NNW 12.7 mph 19.6 mph N/A   Overcast
5:26 AM 28.9 °F 20.4 °F 25.0 °F 85% 29.98 in 10.0 mi NNW 9.2 mph 19.6 mph N/A   Overcast
5:53 AM 28.9 °F 21.9 °F 25.0 °F 85% 30.03 in 10.0 mi NNW 6.9 mph - N/A   Overcast
6:02 AM 28.9 °F 21.1 °F 25.0 °F 85% 30.00 in 10.0 mi NNW 8.1 mph - N/A   Overcast
6:35 AM 28.9 °F 22.8 °F 27.0 °F 92% 30.01 in 4.0 mi NNW 5.8 mph - 0.00 in Snow Light Snow
6:53 AM 28.9 °F 21.1 °F 27.0 °F 92% 30.05 in 7.0 mi NW 8.1 mph - 0.00 in   Overcast
7:14 AM 28.9 °F 20.4 °F 26.1 °F 89% 30.02 in 8.0 mi NW 9.2 mph - N/A   Overcast
7:53 AM 28.9 °F 22.8 °F 26.1 °F 89% 30.08 in 10.0 mi NW 5.8 mph - N/A   Overcast
8:18 AM 28.9 °F 22.8 °F 26.1 °F 89% 30.06 in 2.0 mi Variable 5.8 mph - 0.00 in Snow Light Snow
8:26 AM 28.9 °F 21.9 °F 26.1 °F 89% 30.06 in 1.5 mi WNW 6.9 mph - 0.00 in Snow Light Snow
8:34 AM 28.9 °F 20.4 °F 26.1 °F 89% 30.06 in 1.0 mi West 9.2 mph - 0.00 in Snow Light Snow
8:47 AM 28.4 °F 22.2 °F 26.6 °F 93% 30.06 in 0.8 mi Variable 5.8 mph - 0.00 in Snow Light Snow
8:48 AM 28.0 °F 22.8 °F 26.1 °F 92% 30.11 in 0.8 mi Variable 4.6 mph - 0.00 in Snow Light Snow
8:59 AM 28.9 °F 21.1 °F 27.0 °F 92% 30.07 in 0.5 mi NW 8.1 mph - 0.01 in Fog , Snow Light Snow
9:05 AM 28.9 °F 20.4 °F 26.1 °F 89% 30.07 in 0.5 mi NW 9.2 mph - 0.01 in Fog , Snow Light Snow
9:36 AM 28.9 °F 21.1 °F 26.1 °F 89% 30.06 in 0.2 mi NW 8.1 mph - 0.01 in Fog , Snow Light Snow
9:40 AM 28.0 °F 19.3 °F 26.1 °F 92% 30.07 in 0.5 mi NW 9.2 mph - 0.01 in Fog , Snow Light Snow
9:53 AM 28.9 °F 20.4 °F 26.1 °F 89% 30.11 in 7.0 mi NW 9.2 mph 19.6 mph 0.02 in Snow Light Snow
10:07 AM 30.0 °F 22.4 °F 26.1 °F 85% 30.07 in 2.5 mi NNW 8.1 mph - 0.00 in Snow Light Snow
10:13 AM 30.0 °F 21.7 °F 26.1 °F 85% 30.07 in 2.5 mi NW 9.2 mph 17.3 mph 0.00 in Snow Light Snow
10:33 AM 28.0 °F 18.6 °F 25.0 °F 88% 30.07 in 1.0 mi WNW 10.4 mph 19.6 mph 0.00 in Snow Light Snow
10:53 AM 28.0 °F 18.1 °F 25.0 °F 88% 30.13 in 1.0 mi WNW 11.5 mph 23.0 mph 0.00 in Snow Light Snow
10:55 AM 28.0 °F 19.3 °F 25.0 °F 88% 30.08 in 0.5 mi WNW 9.2 mph 23.0 mph 0.00 in Fog , Snow Light Snow
10:59 AM 28.0 °F 17.5 °F 25.0 °F 88% 30.08 in 0.2 mi WNW 12.7 mph 23.0 mph 0.00 in Fog , Snow Snow
11:05 AM 27.0 °F 18.0 °F 25.0 °F 92% 30.08 in 0.2 mi WNW 9.2 mph 23.0 mph 0.00 in Fog , Snow Heavy Snow
11:17 AM 28.0 °F 18.6 °F 25.0 °F 88% 30.09 in 0.5 mi WNW 10.4 mph 29.9 mph 0.01 in Fog , Snow Light Snow
11:29 AM 28.0 °F 20.8 °F 25.0 °F 88% 30.09 in 0.2 mi Variable 6.9 mph 19.6 mph 0.01 in Fog , Snow Snow
11:45 AM 28.0 °F 18.6 °F 24.1 °F 85% 30.09 in 0.8 mi WNW 10.4 mph 20.7 mph 0.01 in Snow Light Snow
11:49 AM 26.6 °F 16.8 °F 23.0 °F 86% 30.09 in 2.5 mi WNW 10.4 mph 21.9 mph 0.01 in Snow Light Snow
11:53 AM 27.0 °F 19.5 °F 24.1 °F 89% 30.14 in 2.5 mi Variable 6.9 mph 21.9 mph 0.01 in Snow Light Snow
12:09 PM 28.0 °F 20.0 °F 23.0 °F 81% 30.08 in 9.0 mi WNW 8.1 mph 25.3 mph 0.00 in   Overcast
12:23 PM 28.0 °F 19.3 °F 23.0 °F 81% 30.09 in 1.8 mi WNW 9.2 mph 24.2 mph 0.00 in Snow Light Snow
12:30 PM 28.0 °F 18.1 °F 21.9 °F 78% 30.09 in 3.0 mi WNW 11.5 mph 27.6 mph 0.00 in Snow Light Snow
12:53 PM 28.0 °F 18.6 °F 21.0 °F 75% 30.15 in 6.0 mi WNW 10.4 mph 26.5 mph 0.00 in Snow Light Snow
1:53 PM 28.0 °F 19.3 °F 18.0 °F 66% 30.16 in 10.0 mi WNW 9.2 mph 23.0 mph 0.00 in   Overcast
2:08 PM 27.0 °F 15.2 °F 19.9 °F 75% 30.11 in 1.2 mi NW 15.0 mph 27.6 mph 0.00 in Snow Light Snow
2:10 PM 27.0 °F 16.1 °F 19.9 °F 75% 30.11 in 0.8 mi NW 12.7 mph 27.6 mph 0.00 in Snow Light Snow
2:14 PM 26.1 °F 14.5 °F 21.0 °F 81% 30.11 in 0.2 mi NNW 13.8 mph 27.6 mph 0.00 in Snow Heavy Snow
2:24 PM 26.1 °F 15.6 °F 21.9 °F 84% 30.12 in 1.0 mi NW 11.5 mph 23.0 mph 0.00 in Snow Light Snow
2:36 PM 26.1 °F 14.0 °F 21.0 °F 81% 30.12 in 3.0 mi WNW 15.0 mph 25.3 mph 0.00 in Snow Light Snow
2:46 PM 27.0 °F 14.3 °F 21.9 °F 81% 30.12 in 0.5 mi North 17.3 mph 29.9 mph 0.00 in Snow Snow
2:53 PM 24.1 °F 10.6 °F 21.9 °F 91% 30.19 in 0.2 mi NNW 17.3 mph 29.9 mph 0.02 in Fog , Snow Snow
2:59 PM 24.1 °F 9.8 °F 21.9 °F 91% 30.13 in 0.2 mi NNW 19.6 mph 31.1 mph 0.00 in Fog , Snow Snow
3:11 PM 24.1 °F 11.0 °F 21.9 °F 91% 30.13 in 0.2 mi NW 16.1 mph 29.9 mph 0.01 in Fog , Snow Light Snow
3:43 PM 25.0 °F 16.3 °F 21.0 °F 85% 30.15 in 1.2 mi NW 8.1 mph 25.3 mph 0.01 in Snow Light Snow
3:53 PM 25.0 °F 13.6 °F 19.9 °F 81% 30.21 in 5.0 mi NW 12.7 mph 23.0 mph 0.01 in Snow Light Snow
4:28 PM 25.0 °F 16.3 °F 17.1 °F 72% 30.17 in 10.0 mi NW 8.1 mph 21.9 mph 0.00 in   Overcast
4:42 PM 24.1 °F 12.0 °F 17.1 °F 75% 30.17 in 10.0 mi NW 13.8 mph 28.8 mph 0.00 in   Mostly Cloudy
4:53 PM 24.1 °F 12.0 °F 17.1 °F 75% 30.24 in 10.0 mi NNW 13.8 mph 31.1 mph 0.00 in   Scattered Clouds
5:45 PM 23.0 °F 8.7 °F 14.0 °F 68% 30.20 in 10.0 mi NW 18.4 mph 29.9 mph N/A   Mostly Cloudy
5:53 PM 23.0 °F 9.6 °F 15.1 °F 72% 30.27 in 10.0 mi NNW 16.1 mph 29.9 mph N/A   Mostly Cloudy
6:22 PM 21.9 °F 8.7 °F 15.1 °F 75% 30.22 in 10.0 mi NW 15.0 mph 28.8 mph N/A   Scattered Clouds
6:53 PM 21.9 °F 10.4 °F 14.0 °F 72% 30.30 in 10.0 mi NNW 11.5 mph 28.8 mph N/A   Scattered Clouds
7:53 PM 21.0 °F 11.4 °F 14.0 °F 74% 30.33 in 10.0 mi NW 8.1 mph 21.9 mph N/A   Scattered Clouds
8:53 PM 19.9 °F 11.1 °F 12.9 °F 74% 30.34 in 10.0 mi WNW 6.9 mph - N/A   Clear
9:53 PM 19.0 °F 8.2 °F 12.9 °F 77% 30.35 in 10.0 mi WNW 9.2 mph - N/A   Clear
10:53 PM 18.0 °F 7.7 °F 12.0 °F 78% 30.36 in 10.0 mi WNW 8.1 mph - N/A   Clear
11:53 PM 17.1 °F 8.7 °F 12.0 °F 81% 30.36 in 10.0 mi WNW 5.8 mph - N/A   Clear